TimeCDT,TemperatureF,Dew PointF,Humidity,Sea Level PressureIn,VisibilityMPH,Wind Direction,Wind SpeedMPH,Gust SpeedMPH,PrecipitationIn,Events,Conditions,WindDirDegrees,DateUTC
12:55 AM,55.4,53.6,94,30.12,5.0,SE,15.0,-,0.01,Rain,Rain,130,2012-10-13 05:55:00
1:35 AM,55.4,55.4,100,30.09,5.0,SSE,18.4,25.3,0.03,,Mostly Cloudy,150,2012-10-13 06:35:00
1:55 AM,55.4,55.4,100,30.07,7.0,SSE,18.4,23.0,0.03,,Mostly Cloudy,150,2012-10-13 06:55:00
2:15 AM,57.2,55.4,94,30.07,7.0,SSE,13.8,23.0,N/A,,Scattered Clouds,150,2012-10-13 07:15:00
2:35 AM,57.2,55.4,94,30.07,7.0,SE,10.4,18.4,N/A,,Mostly Cloudy,130,2012-10-13 07:35:00
2:55 AM,55.4,55.4,100,30.06,7.0,SE,10.4,-,N/A,,Overcast,140,2012-10-13 07:55:00
3:15 AM,55.4,55.4,100,30.06,7.0,SE,8.1,-,N/A,,Overcast,140,2012-10-13 08:15:00
3:35 AM,57.2,55.4,94,30.07,10.0,SSE,9.2,-,N/A,,Overcast,160,2012-10-13 08:35:00
3:55 AM,57.2,55.4,94,30.08,10.0,SSE,9.2,-,N/A,,Overcast,160,2012-10-13 08:55:00
4:15 AM,59.0,55.4,88,30.08,10.0,SSE,12.7,16.1,N/A,,Overcast,160,2012-10-13 09:15:00
4:35 AM,59.0,55.4,88,30.07,7.0,SSE,10.4,-,N/A,,Overcast,160,2012-10-13 09:35:00
4:55 AM,59.0,57.2,94,30.06,7.0,SSE,10.4,16.1,N/A,,Overcast,160,2012-10-13 09:55:00
5:15 AM,60.8,59.0,94,30.06,7.0,SSE,9.2,16.1,N/A,,Overcast,150,2012-10-13 10:15:00
5:35 AM,60.8,59.0,94,30.06,7.0,SSE,10.4,-,N/A,,Overcast,150,2012-10-13 10:35:00
5:55 AM,60.8,59.0,94,30.06,7.0,SSE,10.4,-,N/A,,Mostly Cloudy,150,2012-10-13 10:55:00
6:15 AM,60.8,57.2,88,30.06,7.0,SSE,12.7,-,N/A,,Scattered Clouds,160,2012-10-13 11:15:00
6:35 AM,60.8,59.0,94,30.06,7.0,SSE,12.7,17.3,N/A,,Mostly Cloudy,160,2012-10-13 11:35:00
6:55 AM,60.8,59.0,94,30.06,7.0,SSE,13.8,19.6,N/A,,Overcast,150,2012-10-13 11:55:00
7:15 AM,60.8,59.0,94,30.05,10.0,SSE,11.5,21.9,N/A,,Overcast,150,2012-10-13 12:15:00
7:35 AM,60.8,59.0,94,30.05,10.0,SSE,12.7,19.6,N/A,,Overcast,160,2012-10-13 12:35:00
7:55 AM,62.6,59.0,88,30.05,10.0,SSE,12.7,23.0,N/A,,Overcast,160,2012-10-13 12:55:00
8:15 AM,62.6,59.0,88,30.05,10.0,SSE,13.8,19.6,N/A,,Mostly Cloudy,150,2012-10-13 13:15:00
8:55 AM,62.6,59.0,88,30.05,10.0,SSE,11.5,18.4,N/A,,Scattered Clouds,150,2012-10-13 13:55:00
9:35 AM,64.4,60.8,88,30.04,10.0,SSE,11.5,18.4,N/A,,Clear,160,2012-10-13 14:35:00
9:55 AM,66.2,60.8,83,30.04,10.0,SSE,16.1,24.2,N/A,,Scattered Clouds,150,2012-10-13 14:55:00
10:15 AM,64.4,60.8,88,30.03,10.0,SSE,13.8,19.6,N/A,,Clear,150,2012-10-13 15:15:00
10:55 AM,68.0,60.8,78,30.03,10.0,South,12.7,18.4,N/A,,Clear,170,2012-10-13 15:55:00
11:15 AM,69.8,60.8,73,30.02,10.0,South,17.3,20.7,N/A,,Scattered Clouds,170,2012-10-13 16:15:00
11:35 AM,69.8,60.8,73,30.02,10.0,SSE,11.5,24.2,N/A,,Overcast,160,2012-10-13 16:35:00
11:55 AM,69.8,60.8,73,30.01,10.0,South,11.5,19.6,N/A,,Overcast,170,2012-10-13 16:55:00
12:35 PM,69.8,60.8,73,30.00,10.0,SSE,11.5,23.0,N/A,,Overcast,160,2012-10-13 17:35:00
12:55 PM,69.8,60.8,73,29.99,10.0,SSE,16.1,20.7,N/A,,Overcast,150,2012-10-13 17:55:00
1:15 PM,69.8,60.8,73,29.97,10.0,SSE,11.5,21.9,N/A,,Overcast,160,2012-10-13 18:15:00
1:35 PM,71.6,62.6,73,29.95,10.0,SSE,11.5,21.9,N/A,,Mostly Cloudy,160,2012-10-13 18:35:00
1:55 PM,71.6,60.8,69,29.94,10.0,SSE,16.1,24.2,N/A,,Mostly Cloudy,160,2012-10-13 18:55:00
2:15 PM,71.6,60.8,69,29.93,10.0,SSE,18.4,24.2,N/A,,Scattered Clouds,160,2012-10-13 19:15:00
2:35 PM,71.6,60.8,69,29.92,10.0,SSE,15.0,21.9,N/A,,Scattered Clouds,150,2012-10-13 19:35:00
2:55 PM,69.8,62.6,78,29.91,10.0,SE,11.5,16.1,N/A,Thunderstorm,Thunderstorm,140,2012-10-13 19:55:00
3:35 PM,69.8,62.6,78,29.89,10.0,SE,9.2,18.4,N/A,Rain-Thunderstorm,Light Thunderstorms and Rain,140,2012-10-13 20:35:00
3:55 PM,71.6,62.6,73,29.89,10.0,SE,11.5,-,N/A,Thunderstorm,Overcast,130,2012-10-13 20:55:00
4:15 PM,71.6,62.6,73,29.89,10.0,SE,10.4,-,N/A,Thunderstorm,Thunderstorm,140,2012-10-13 21:15:00
4:35 PM,69.8,62.6,78,29.88,10.0,SE,6.9,-,N/A,Thunderstorm,Overcast,130,2012-10-13 21:35:00
4:55 PM,69.8,62.6,78,29.88,10.0,ESE,8.1,-,N/A,Thunderstorm,Overcast,120,2012-10-13 21:55:00
5:15 PM,71.6,60.8,69,29.87,10.0,SE,8.1,-,N/A,,Overcast,140,2012-10-13 22:15:00
5:35 PM,71.6,60.8,69,29.87,10.0,SE,13.8,17.3,N/A,,Overcast,140,2012-10-13 22:35:00
5:55 PM,71.6,60.8,69,29.86,10.0,SSE,13.8,18.4,N/A,,Overcast,150,2012-10-13 22:55:00
6:15 PM,71.6,60.8,69,29.85,10.0,SE,15.0,19.6,N/A,,Overcast,140,2012-10-13 23:15:00
6:35 PM,71.6,60.8,69,29.84,10.0,SSE,15.0,21.9,N/A,,Overcast,150,2012-10-13 23:35:00
7:35 PM,69.8,60.8,73,29.84,10.0,SE,18.4,23.0,N/A,,Overcast,140,2012-10-14 00:35:00
7:55 PM,69.8,60.8,73,29.83,10.0,SE,13.8,24.2,N/A,,Overcast,140,2012-10-14 00:55:00
9:15 PM,68.0,64.4,88,29.79,10.0,SE,18.4,24.2,0.02,Rain,Light Rain,140,2012-10-14 02:15:00
9:35 PM,68.0,64.4,88,29.81,10.0,SSE,16.1,19.6,0.02,Thunderstorm,Overcast,160,2012-10-14 02:35:00
9:55 PM,64.4,62.6,94,29.86,4.0,SW,17.3,33.4,0.16,Rain-Thunderstorm,Heavy Thunderstorms and Rain,230,2012-10-14 02:55:00
10:15 PM,62.6,60.8,94,29.83,7.0,South,6.9,-,0.10,Rain,Rain,180,2012-10-14 03:15:00
11:15 PM,62.6,60.8,94,29.82,7.0,SSW,6.9,-,0.05,Rain,Rain,200,2012-10-14 04:15:00
11:35 PM,62.6,60.8,94,29.82,5.0,SSE,6.9,-,0.13,Rain,Rain,160,2012-10-14 04:35:00